Regional Weather Roundup
Issued by NWS Burlington, VT

Current Version | Previous Version | Text Only | Print | Product List | Glossary Off
Versions: 1 2 3 4 5 6 7 8 9 10 11 12 13 14 15 16 17 18 19 20 21 22 23 24 25 26 27 28 29 30 31 32 33 34 35 36 37 38 39 40 41 42 43 44 45 46 47 48 49 50

000
ASUS41 KBTV 030410
RWRBTV
VERMONT REGIONAL WEATHER ROUNDUP
NATIONAL WEATHER SERVICE BURLINGTON VT
1100 PM EST FRI DEC 02 2016

NOTE: "FAIR" INDICATES FEW OR NO CLOUDS BELOW 12,000 FEET WITH NO
SIGNIFICANT WEATHER AND/OR OBSTRUCTIONS TO VISIBILITY.

* THESE REPORTS ARE NOT UNDER NWS QUALITY CONTROL AND/OR DO NOT
  REPORT WEATHER SUCH AS PRECIPITATION AND FOG.

VTZ001>019-030500-
_____VERMONT_____


CITY           SKY/WX    TMP DP  RH WIND       PRES   REMARKS
BURLINGTON     CLOUDY    38  29  70 W12G18    29.76R WCI  30
MONTPELIER     FLURRIES  32  29  88 W9        29.74S WCI  24
MORRISVILLE    FLURRIES  34  28  79 W8        29.73S WCI  27
ST. JOHNSBURY*   N/A     35  30  82 MISG      29.68S
LYNDONVILLE*   CLOUDY    32  30  92 W9        29.69S WCI  24
RUTLAND*       CLOUDY    35  28  75 NW6       29.76R WCI  30
SPRINGFIELD    PTCLDY    38  26  62 NW10G17   29.74R WCI  31
HIGHGATE*      CLOUDY    35  31  84 W6        29.74S WCI  30
NEWPORT*       FLURRIES  32  30  92 W3        29.69S
BENNINGTON     CLOUDY    37  29  72 W10G22    29.78R WCI  30
SUTTON*          N/A     30 N/A N/A MISG        N/A

_____LAKE CHAMPLAIN_____


CITY           SKY/WX    TMP DP  RH WIND       PRES   REMARKS
BURTON ISLAND*   N/A     37  32  81 W18         N/A  WCI  27
COLCHESTER RF*   N/A     39  32  75 NW16        N/A  WCI  30
DIAMOND ISL*     N/A     39  30  70 N6          N/A

$$

NYZ007-026>031-035-052-083-087-030500-
_____NORTHERN NEW YORK_____


CITY           SKY/WX    TMP DP  RH WIND       PRES   REMARKS
PLATTSBURGH    CLOUDY    37  28  70 NW6       29.76R
SARANAC LAKE   LGT SNOW  30  27  88 VRB6      29.73S FOG     WCI  24
MASSENA        CLOUDY    36  29  75 W13       29.83R WCI  27
OGDENSBURG*    MOCLDY    36  30  80 NW8       29.85R WCI  29
POTSDAM*       CLOUDY    36  34  93 W12G17    29.83R WCI  27
FT DRUM        CLOUDY    33  27  77 W7        29.86R WCI  27
ALBANY         CLOUDY    38  30  73 W12G21    29.84R WCI  30
GLENS FALLS    MOCLDY    38  28  67 W3        29.80R

$$
NHZ002-005-011-030500-
_____NEW HAMPSHIRE_____


CITY           SKY/WX    TMP DP  RH WIND       PRES   REMARKS
LEBANON        CLOUDY    34  33  96 VRB3      29.73R
KEENE          CLOUDY    39  31  72 SW6       29.74R
MT WASHINGTON  SNOWSHWR  12  12 100 W55G66      N/A  VSB 0   WCI -15
PLYMOUTH         N/A     35  31  85 W8        29.71R WCI  29
WHITEFIELD     CLOUDY    33  28  81 W5        29.68S WCI  29

$$

_____REGIONAL QUEBEC LOCATIONS_____


CITY           SKY/WX    TMP DP  RH WIND       PRES   REMARKS
MONTREAL       CLOUDY    36  30  80 W14       29.75R WCI  27
QUEBEC CITY    LGT SNOW  32  32 100 NW2       29.66R FOG
SHERBROOKE     LGT SNOW  32  32 100 W9        29.65R WCI  24

_____REGIONAL ONTARIO LOCATIONS_____


CITY           SKY/WX    TMP DP  RH WIND       PRES   REMARKS
OTTAWA         CLOUDY    34  28  80 W17       29.83R WCI  23

______KEY______
VSB  - VISIBILITY IN MILES
WCI  - WIND CHILL INDEX
HX   - HEAT INDEX
$$
NNNN



USA.gov is the U.S. government's official web portal to all federal, state and local government web resources and services.